This is the latest recevied weather packets stored in our database for station/object WE8L. If no packets are shown the sender has not sent any weather packets the latest 10 day(s).
| Time | Temp. | Humidity | Pressure | Rain* | Wind** | Luminosity | Snow |
|---|---|---|---|---|---|---|---|
| 1777902058 | 15.56° C | 66% | 1011.9 hPa | 0 mm | - | 139 W/m² | - |
| 1777901757 | 15° C | 67% | 1012 hPa | 0 mm | - | 146 W/m² | - |
| 1777901454 | 15° C | 67% | 1011.8 hPa | 0 mm | - | 204 W/m² | - |
| 1777901151 | 14.44° C | 68% | 1011.8 hPa | 0 mm | - | 119 W/m² | - |
| 1777900849 | 14.44° C | 68% | 1011.8 hPa | 0 mm | - | 72 W/m² | - |
| 1777900546 | 14.44° C | 67% | 1011.8 hPa | 0 mm | - | 54 W/m² | - |
| 1777900243 | 14.44° C | 68% | 1011.7 hPa | 0 mm | - | 59 W/m² | - |
| 1777899939 | 14.44° C | 67% | 1011.8 hPa | 0 mm | - | 59 W/m² | - |
| 1777899636 | 14.44° C | 67% | 1011.9 hPa | 0 mm | - | 57 W/m² | - |
| 1777899334 | 13.89° C | 68% | 1011.8 hPa | 0 mm | - | 60 W/m² | - |
| 1777899031 | 13.89° C | 68% | 1011.9 hPa | 0 mm | - | 57 W/m² | - |
| 1777898728 | 13.89° C | 69% | 1012 hPa | 0 mm | - | 47 W/m² | - |
| 1777898426 | 13.89° C | 68% | 1011.8 hPa | 0 mm | - | 46 W/m² | - |
| 1777898123 | 13.89° C | 68% | 1011.9 hPa | 0 mm | - | 41 W/m² | - |
| 1777897820 | 13.89° C | 68% | 1011.9 hPa | 0 mm | - | 35 W/m² | - |
| 1777897516 | 13.33° C | 68% | 1011.7 hPa | 0 mm | - | 31 W/m² | - |
| 1777897211 | 13.33° C | 68% | 1011.7 hPa | 0 mm | - | 29 W/m² | - |
| 1777896908 | 13.33° C | 68% | 1012 hPa | 0 mm | - | 26 W/m² | - |
| 1777896605 | 13.33° C | 68% | 1012 hPa | 0 mm | - | 25 W/m² | - |
| 1777896301 | 13.33° C | 67% | 1012 hPa | 0 mm | - | 27 W/m² | - |
| 1777896000 | 13.33° C | 67% | 1012.1 hPa | 0 mm | - | 30 W/m² | - |
| 1777895698 | 13.33° C | 67% | 1011.9 hPa | 0 mm | - | 29 W/m² | - |
| 1777895394 | 13.33° C | 67% | 1012 hPa | 0 mm | - | 25 W/m² | - |
| 1777895092 | 13.33° C | 66% | 1011.9 hPa | 0 mm | - | 21 W/m² | - |
| 1777894789 | 13.33° C | 66% | 1011.7 hPa | 0 mm | - | 18 W/m² | - |
* Rain latest hour (hover to see other rain measurements)
** Current wind speed in m/s (hover to see current wind gust speed)